• In Russia
  • List of Countries
  • For 7 days
  • Water Temperature
  • Satellite Maps
  • Weather Map
  • Weather Widgets
  • user-avatar
    Login

    Hourly Weather Kerns

    Today, 24 February, Friday

    Time Temperature Precipitation Wind Pressure Humidity
    00:00 +26°C° 0.1 mm 4 mps 758 mmHg 95%
    01:00 +26°C° 0.1 mm 4 mps 758 mmHg 95%
    02:00 +26°C° 0.1 mm 4 mps 758 mmHg 95%
    03:00 +26°C° 0.1 mm 4 mps 758 mmHg 95%
    04:00 +26°C° 0 mm 4 mps 758 mmHg 95%
    05:00 +26°C° 0.5 mm 3 mps 758 mmHg 94%
    06:00 +27°C° 0.5 mm 3 mps 758 mmHg 93%
    07:00 +27°C° 0.5 mm 3 mps 758 mmHg 93%
    08:00 +29°C° 0.9 mm 3 mps 758 mmHg 83%
    09:00 +31°C° 0.9 mm 3 mps 758 mmHg 74%
    10:00 +33°C° 0 mm 4 mps 759 mmHg 71%
    11:00 +34°C° 0.9 mm 4 mps 758 mmHg 69%
    12:00 +34°C° 0.9 mm 4 mps 758 mmHg 68%
    13:00 +35°C° 0.9 mm 3 mps 757 mmHg 66%
    14:00 +34°C° 0.4 mm 4 mps 757 mmHg 70%
    15:00 +33°C° 0.4 mm 4 mps 756 mmHg 73%
    16:00 +33°C° 0.4 mm 4 mps 756 mmHg 77%
    17:00 +30°C° 0.4 mm 4 mps 756 mmHg 82%
    18:00 +29°C° 0.4 mm 3 mps 757 mmHg 87%
    19:00 +28°C° 0.4 mm 3 mps 757 mmHg 92%
    20:00 +28°C° 0.4 mm 3 mps 757 mmHg 92%
    21:00 +27°C° 0.4 mm 3 mps 758 mmHg 93%
    22:00 +27°C° 0.4 mm 3 mps 758 mmHg 94%
    23:00 +27°C° 0.3 mm 3 mps 758 mmHg 94%

    Tomorrow, 25 February, Saturday

    Time Temperature Precipitation Wind Pressure Humidity
    00:00 +26°C° 0.3 mm 3 mps 757 mmHg 94%
    01:00 +26°C° 0.3 mm 3 mps 757 mmHg 94%
    02:00 +26°C° 0.1 mm 3 mps 757 mmHg 95%
    03:00 +26°C° 0.1 mm 3 mps 757 mmHg 95%
    04:00 +26°C° 0.1 mm 3 mps 756 mmHg 96%
    05:00 +26°C° 0.1 mm 3 mps 757 mmHg 95%
    06:00 +26°C° 0.1 mm 3 mps 757 mmHg 95%
    07:00 +27°C° 0.1 mm 4 mps 757 mmHg 94%
    08:00 +29°C° 0.1 mm 4 mps 757 mmHg 85%
    09:00 +30°C° 0.1 mm 4 mps 757 mmHg 76%
    10:00 +33°C° 0.1 mm 4 mps 757 mmHg 67%
    11:00 +33°C° 0.5 mm 4 mps 757 mmHg 65%
    12:00 +34°C° 0.5 mm 4 mps 757 mmHg 64%
    13:00 +34°C° 0.5 mm 4 mps 756 mmHg 63%
    14:00 +34°C° 0.8 mm 4 mps 756 mmHg 65%
    15:00 +33°C° 0.8 mm 5 mps 755 mmHg 67%
    16:00 +33°C° 0.8 mm 5 mps 755 mmHg 69%
    17:00 +30°C° 0.4 mm 5 mps 756 mmHg 76%
    18:00 +29°C° 0.4 mm 4 mps 756 mmHg 82%
    19:00 +27°C° 0.4 mm 4 mps 756 mmHg 88%
    20:00 +27°C° 0.7 mm 4 mps 757 mmHg 90%
    21:00 +26°C° 0.7 mm 4 mps 757 mmHg 93%
    22:00 +26°C° 0.7 mm 4 mps 758 mmHg 95%
    23:00 +26°C° 0.2 mm 4 mps 757 mmHg 95%

    Day after tomorrow, 26 February, Sunday

    Time Temperature Precipitation Wind Pressure Humidity
    00:00 +26°C° 0.2 mm 4 mps 757 mmHg 96%
    01:00 +26°C° 0.2 mm 4 mps 756 mmHg 96%
    02:00 +25°C° 0.1 mm 4 mps 756 mmHg 96%
    03:00 +25°C° 0.1 mm 4 mps 756 mmHg 96%
    04:00 +25°C° 0.1 mm 4 mps 755 mmHg 96%
    05:00 +25°C° 0 mm 4 mps 756 mmHg 95%
    06:00 +25°C° 0 mm 4 mps 756 mmHg 94%
    07:00 +25°C° 0 mm 4 mps 756 mmHg 94%
    08:00 +28°C° 0 mm 4 mps 757 mmHg 83%
    09:00 +30°C° 0 mm 5 mps 757 mmHg 72%
    10:00 +33°C° 0 mm 5 mps 757 mmHg 61%
    11:00 +34°C° 0 mm 5 mps 757 mmHg 58%
    12:00 +34°C° 0 mm 5 mps 756 mmHg 54%
    13:00 +35°C° 0 mm 5 mps 756 mmHg 51%
    14:00 +35°C° 0.1 mm 5 mps 755 mmHg 53%
    15:00 +34°C° 0.1 mm 5 mps 755 mmHg 56%
    16:00 +34°C° 0.1 mm 6 mps 755 mmHg 58%
    17:00 +32°C° 0.1 mm 5 mps 755 mmHg 67%
    18:00 +29°C° 0.1 mm 5 mps 756 mmHg 76%
    19:00 +27°C° 0.1 mm 5 mps 756 mmHg 85%
    20:00 +27°C° 0.2 mm 4 mps 757 mmHg 88%
    21:00 +26°C° 0.2 mm 4 mps 757 mmHg 92%
    22:00 +25°C° 0.2 mm 4 mps 758 mmHg 96%
    23:00 +25°C° 0.3 mm 4 mps 758 mmHg 96%

    27 February, Monday

    Time Temperature Precipitation Wind Pressure Humidity
    00:00 +25°C° 0.3 mm 4 mps 757 mmHg 95%
    01:00 +25°C° 0.3 mm 4 mps 757 mmHg 95%
    02:00 +25°C° 0.4 mm 4 mps 756 mmHg 95%
    03:00 +25°C° 0.4 mm 4 mps 756 mmHg 95%
    04:00 +25°C° 0.4 mm 4 mps 756 mmHg 94%
    05:00 +25°C° 0.6 mm 4 mps 756 mmHg 94%
    06:00 +25°C° 0.6 mm 4 mps 757 mmHg 93%
    07:00 +26°C° 0.6 mm 5 mps 758 mmHg 92%
    08:00 +27°C° 0.8 mm 5 mps 758 mmHg 83%
    09:00 +29°C° 0.8 mm 5 mps 758 mmHg 74%
    10:00 +32°C° 0.8 mm 5 mps 758 mmHg 65%
    11:00 +33°C° 0.8 mm 5 mps 758 mmHg 61%
    12:00 +34°C° 0.8 mm 5 mps 757 mmHg 57%
    13:00 +35°C° 0.8 mm 5 mps 756 mmHg 53%
    14:00 +35°C° 0.6 mm 6 mps 756 mmHg 54%
    15:00 +34°C° 0.6 mm 6 mps 756 mmHg 55%
    16:00 +34°C° 0.6 mm 6 mps 755 mmHg 57%
    17:00 +32°C° 0.3 mm 5 mps 756 mmHg 66%
    18:00 +29°C° 0.3 mm 5 mps 756 mmHg 75%
    19:00 +27°C° 0.3 mm 5 mps 757 mmHg 84%
    20:00 +27°C° 0.2 mm 5 mps 757 mmHg 87%
    21:00 +26°C° 0.2 mm 5 mps 758 mmHg 90%
    22:00 +26°C° 0.2 mm 5 mps 758 mmHg 93%
    23:00 +25°C° 0.3 mm 5 mps 758 mmHg 93%

    28 February, Tuesday

    Time Temperature Precipitation Wind Pressure Humidity
    00:00 +25°C° 0.3 mm 5 mps 758 mmHg 93%
    01:00 +25°C° 0.3 mm 4 mps 757 mmHg 93%
    02:00 +25°C° 0.2 mm 4 mps 757 mmHg 93%
    03:00 +25°C° 0.2 mm 4 mps 757 mmHg 93%
    04:00 +25°C° 0.2 mm 5 mps 756 mmHg 93%
    05:00 +25°C° 0.2 mm 5 mps 757 mmHg 93%
    06:00 +25°C° 0.2 mm 5 mps 757 mmHg 92%
    07:00 +25°C° 0.2 mm 5 mps 758 mmHg 92%
    08:00 +27°C° 0.1 mm 5 mps 758 mmHg 83%
    09:00 +29°C° 0.1 mm 5 mps 758 mmHg 75%
    10:00 +32°C° 0.1 mm 5 mps 758 mmHg 66%
    11:00 +33°C° 0 mm 5 mps 758 mmHg 62%
    12:00 +34°C° 0 mm 6 mps 757 mmHg 57%
    13:00 +35°C° 0 mm 6 mps 757 mmHg 52%
    14:00 +34°C° 0 mm 6 mps 756 mmHg 54%
    15:00 +34°C° 0 mm 6 mps 756 mmHg 55%
    16:00 +34°C° 0 mm 6 mps 755 mmHg 56%
    17:00 +32°C° 0.1 mm 6 mps 756 mmHg 65%
    18:00 +29°C° 0.1 mm 5 mps 756 mmHg 75%
    19:00 +27°C° 0.1 mm 5 mps 757 mmHg 84%
    20:00 +27°C° 0.1 mm 5 mps 757 mmHg 87%
    21:00 +26°C° 0.1 mm 5 mps 758 mmHg 90%
    22:00 +26°C° 0.1 mm 5 mps 758 mmHg 93%
    23:00 +26°C° 0.1 mm 5 mps 758 mmHg 93%

    1 March, Wednesday

    Time Temperature Precipitation Wind Pressure Humidity
    00:00 +25°C° 0.1 mm 4 mps 757 mmHg 94%
    01:00 +25°C° 0.1 mm 4 mps 757 mmHg 94%
    02:00 +25°C° 0.1 mm 4 mps 757 mmHg 94%
    03:00 +25°C° 0.1 mm 4 mps 756 mmHg 94%
    04:00 +25°C° 0.1 mm 4 mps 756 mmHg 94%
    05:00 +25°C° 0.1 mm 4 mps 757 mmHg 93%
    06:00 +26°C° 0.1 mm 5 mps 757 mmHg 92%
    07:00 +26°C° 0.1 mm 5 mps 757 mmHg 92%
    08:00 +28°C° 0.1 mm 5 mps 758 mmHg 82%
    09:00 +29°C° 0.1 mm 5 mps 758 mmHg 73%
    10:00 +32°C° 0.1 mm 6 mps 758 mmHg 64%
    11:00 +33°C° 0 mm 6 mps 757 mmHg 60%
    12:00 +34°C° 0 mm 6 mps 757 mmHg 56%
    13:00 +35°C° 0 mm 6 mps 756 mmHg 52%
    14:00 +35°C° 0.1 mm 6 mps 756 mmHg 53%
    15:00 +34°C° 0.1 mm 6 mps 755 mmHg 55%
    16:00 +34°C° 0.1 mm 6 mps 755 mmHg 57%
    17:00 +32°C° 0.1 mm 6 mps 756 mmHg 66%
    18:00 +29°C° 0.1 mm 5 mps 756 mmHg 75%
    19:00 +27°C° 0.1 mm 5 mps 756 mmHg 84%
    20:00 +27°C° 0.1 mm 5 mps 757 mmHg 87%
    21:00 +27°C° 0.1 mm 4 mps 757 mmHg 89%
    22:00 +26°C° 0.1 mm 4 mps 757 mmHg 92%
    23:00 +26°C° 0.1 mm 4 mps 757 mmHg 93%
    Show more